Weather History for Jaipur, India

Change the Weather History Date:

Thursday, January 3, 2013

  Actual Average Record
Temperature  
Mean Temperature 54 °F -  
Max Temperature 68 °F - - ()
Min Temperature 39 °F - - ()
Degree Days  
Heating Degree Days 12    
Growing Degree Days 4 (Base 50)    
Moisture  
Dew Point 35 °F    
Average Humidity 48    
Maximum Humidity 81    
Minimum Humidity 17    
Precipitation  
Precipitation 0.00 in - - ()
Sea Level Pressure  
Sea Level Pressure 30.05 in    
Wind  
Wind Speed 2 mph ()    
Max Wind Speed 7 mph    
Max Gust Speed -    
Visibility 1.6 miles    
Events      
T = Trace of Precipitation, MM = Missing Value Source: Averaged Metar Reports

Daily Weather History Graph

Daily Weather History Graph

Search for Another Location

Airport:

Trip Planner

Search our weather history database for the weather conditions in past years. The results will help you decide how hot, cold, wet, or windy it might be!

Date:

Astronomy

Jan. 03, 2013 Rise Set
Actual Time 7:16 AM IST 5:46 PM IST
Civil Twilight 6:50 AM IST 6:11 PM IST
Nautical Twilight 6:21 AM IST 6:40 PM IST
Astronomical Twilight 5:53 AM IST 7:08 PM IST
Moon 11:16 PM IST (1/3) 10:46 AM IST (1/3)
Length of Visible Light 11h 21m
Length of Day
10h 30m
Waning Gibbous, 70% of the Moon is Illuminated
Jan 3
Waning Gibbous
Jan 5
Last Quarter
Jan 12
New
Jan 19
First Quarter
Jan 27
Full

Hourly Weather History & Observations

Time (IST) Temp. Dew Point Humidity Pressure Visibility Wind Dir Wind Speed Gust Speed Precip Events Conditions
12:00 AM 50.0 °F 37.4 °F 62% 30.04 in 1.2 mi Variable 2.3 mph - N/A   Smoke
1:00 AM 44.6 °F 35.6 °F 71% 30.04 in 1.2 mi Variable 1.2 mph - N/A   Smoke
2:00 AM 44.6 °F 37.4 °F 76% 30.04 in 1.2 mi Variable 1.2 mph - N/A   Smoke
2:30 AM 44 °F 37 °F 70% 30.04 in 1 mi Calm Calm - -   Smoke
4:00 AM 42.8 °F 37.4 °F 81% 30.04 in 1.2 mi Calm Calm - N/A   Smoke
5:00 AM 42.8 °F 35.6 °F 76% 30.04 in 1.2 mi Calm Calm - N/A   Smoke
5:30 AM 44 °F 38 °F 74% 30.06 in 1 mi Calm Calm - -   Mist
6:00 AM 42.8 °F 37.4 °F 81% 30.04 in 1.0 mi Calm Calm - N/A   Mist
8:00 AM 42.8 °F 35.6 °F 76% 30.06 in 0.6 mi Calm Calm - N/A   Partly Cloudy
8:30 AM 46 °F 38 °F 65% 30.10 in 0 mi Calm Calm - -   Mist
10:00 AM 57.2 °F 37.4 °F 48% 30.12 in 1.6 mi Variable 2.3 mph - N/A   Haze
11:00 AM 60.8 °F 32.0 °F 34% 30.12 in 2.5 mi Variable 2.3 mph - N/A   Haze
11:30 AM 62.6 °F 32.0 °F 32% 30.09 in 2.5 mi Variable 5.8 mph - N/A   Haze
12:00 PM 62.6 °F 32.0 °F 32% 30.09 in 2.5 mi Variable 5.8 mph - N/A   Haze
1:00 PM 64.4 °F 32.0 °F 30% 30.06 in 2.5 mi SSW 5.8 mph - N/A   Haze
1:30 PM 64.4 °F 32.0 °F 30% 30.06 in 2.5 mi Variable 5.8 mph - N/A   Haze
2:00 PM 64.4 °F 32.0 °F 30% 30.04 in 2.5 mi Variable 4.6 mph - N/A   Haze
2:30 PM 66 °F 32 °F 17% 30.01 in 2 mi SW 4.6 mph - -   Haze
3:00 PM 66.2 °F 30.2 °F 26% 30.04 in 2.5 mi SW 4.6 mph - N/A   Haze
3:30 PM 66.2 °F 30.2 °F 26% 30.01 in 2.5 mi WSW 5.8 mph - N/A   Haze
4:00 PM 68.0 °F 30.2 °F 24% 30.01 in 2.5 mi Variable 1.2 mph - N/A   Haze
4:30 PM 66.2 °F 30.2 °F 26% 30.01 in 2.5 mi WSW 4.6 mph - N/A   Haze
5:00 PM 66.2 °F 30.2 °F 26% 30.01 in 2.5 mi Variable 3.5 mph - N/A   Haze
5:30 PM 62.6 °F 32.0 °F 32% 30.01 in 2.2 mi Variable 3.5 mph - N/A   Haze
6:00 PM 62.6 °F 32.0 °F 32% 30.04 in - Variable 3.5 mph - N/A   Haze
6:30 PM 60.8 °F 32.0 °F 34% 30.04 in 1.2 mi Variable 3.5 mph - N/A   Smoke
7:00 PM 57.2 °F 35.6 °F 44% 30.04 in 1.2 mi Calm Calm - N/A   Smoke
8:00 PM 53.6 °F 37.4 °F 54% 30.06 in 1.2 mi Variable 2.3 mph - N/A   Smoke
8:30 PM 53 °F 38 °F 46% 30.05 in 1 mi Calm Calm - -   Smoke
8:30 PM 53.6 °F 37.4 °F 54% 30.06 in 1.1 mi Calm Calm - N/A   Smoke
10:00 PM 53.6 °F 37.4 °F 54% 30.06 in 0.9 mi East 6.9 mph - N/A   Smoke
11:00 PM 50.0 °F 37.4 °F 62% 30.06 in 1.2 mi East 5.8 mph - N/A   Smoke
11:30 PM 48 °F 38 °F 60% 30.06 in 1 mi East 4.6 mph - -   Smoke